Flag for Mexico Weather past 2 weeks in Merida, Yucatán, Mexico

Now
88 °F

Partly sunny.


Feels Like: 89 °F
Forecast: 74 / 94 °F
Wind: 15 mph from Southeast

Location: Aerop. Internacional Merida - Yuc


UV Index: 7 (High)

Visibility: 7 mi


Pressure: 29.97 "Hg

Humidity: 46%

Dew point: 64 °F

Location of MeridaLocation

Historic Weather in Merida

°F

Merida temperature yesterday

Maximum temperature yesterday: 86 °F (at 11:46 AM)
Minimum temperature yesterday: 72 °F (at 12:54 AM)
Average temperature yesterday: 78 °F

Past Weeks' High & Low Weather Summary

 TemperatureHumidityPressure
High104 °F (Apr 7, 3:50 PM)100% (Apr 8, 5:50 AM)30.23 "Hg (Apr 8, 5:50 AM)
Low55 °F (Apr 10, 6:52 AM)18% (Apr 5, 2:52 PM)29.63 "Hg (Apr 7, 4:50 PM)
Average82 °F57%29.92 "Hg
* Reported Apr 2 9:48 AM — Apr 17 10:43 AM, Merida, Weather by CustomWeather, © 2014

Note: Actual official high and low records may vary slightly from our data, if they occured in-between our weather recording intervals... More about our weather records

Advertising

Historic Weather Conditions — Data for Previous 24 hours

 ConditionsComfort  
Time TempWeatherWind HumidityBarometerVisibility
10:43 AM
Apr 17
88 °FPartly sunny.15 mph46%29.97 "Hg7 mi
9:47 AM84 °FPartly sunny.20 mph58%29.92 "Hg7 mi
9:05 AM81 °FPartly sunny.16 mph70%29.96 "Hg7 mi
8:46 AM81 °FPartly sunny.14 mph74%29.96 "Hg6 mi
7:47 AM75 °FPassing clouds.10 mph83%29.95 "Hg5 mi
6:48 AM73 °FPassing clouds.9 mph89%29.92 "Hg5 mi
5:44 AM75 °FPassing clouds.7 mph83%29.92 "Hg6 mi
3:47 AM75 °FPassing clouds.10 mph83%29.92 "Hg7 mi
2:45 AM75 °FPassing clouds.8 mph83%29.92 "Hg7 mi
1:45 AM77 °FPassing clouds.9 mph79%29.93 "Hg7 mi
12:45 AM77 °FPassing clouds.7 mph79%29.94 "Hg7 mi
11:41 PM
Apr 16
79 °FPassing clouds.8 mph74%29.94 "Hg7 mi
10:40 PM79 °FPartly cloudy.8 mph79%29.94 "Hg7 mi
9:47 PM79 °FPartly cloudy.6 mph74%29.97 "Hg7 mi
8:46 PM79 °FPassing clouds.9 mph74%29.92 "Hg7 mi
7:48 PM79 °FOvercast.14 mph70%29.92 "Hg7 mi
6:53 PM79 °FPartly sunny.17 mph70%29.91 "Hg7 mi
5:43 PM82 °FPartly sunny.14 mph58%29.87 "Hg7 mi
4:52 PM86 °FScattered clouds.17 mph52%29.87 "Hg7 mi
3:51 PM86 °FPartly sunny.9 mph52%29.87 "Hg7 mi
1:46 PM86 °FPartly sunny.13 mph52%29.92 "Hg7 mi
12:48 PM86 °FPartly sunny.10 mph55%29.95 "Hg7 mi
11:46 AM86 °FPartly sunny.9 mph52%29.98 "Hg7 mi
Weather by CustomWeather, © 2014

See weather overview